Location: Monteux
(44.0348°N, 4.9972°E)
Time: 04:32:54
(UTC+00:00)

Cosmos 2341 Rocket - Pass Details

Date: 24 April 2021
Orbit: 969 x 1003 km, 82.9° (Epoch: 11 May)

Event Time Altitude Azimuth Distance (km) Brightness Sun altitude
Rises 01:37:10 0° 340° (NNW) 3,722 7.5 -27.0°
Reaches altitude 10° 01:40:12 10° 327° (NNW) 2,773 6.6 -26.7°
Enters shadow 01:44:22 23° 286° (WNW) 1,985 5.4 -26.2°
